Location: Unspecified
(48.5670°N, 0.0000°E)
Time: 18:23:34
(UTC+00:00)

Transit 4A - Pass Details

Date: 26 August 2019
Orbit: 866 x 978 km, 66.8° (Epoch: 15 October)

Event Time Altitude Azimuth Distance (km) Brightness Sun altitude
Rises 03:18:48 0° 317° (NW) 3,626 11.0 -16.7°
Reaches altitude 10° 03:21:48 10° 305° (NW) 2,658 10.1 -16.4°
Maximum altitude 03:26:38 25° 253° (WSW) 1,790 8.8 -15.7°
Enters shadow 03:27:42 23° 237° (WSW) 1,834 8.8 -15.6°
